[[{"header":{"parameterUnit":"m.s-1","parameterCategory":1,"la1":30.2991,"la2":30.254,"lo1":-89.0895,"lo2":-89.0444,"dy":0.0017,"dx":0.0017,"nx":28,"ny":28,"refTime":"2025-05-31T09:00:00:Z","depth":0,"parameterNumber":2,"parameterNumberName":"U-component_of_WINDS"},"data":[0,0,0,0,0,0,0,0,0,0,0,0,0,0,0,0,0,0,0,0,0,0,0,0,0,0,0,0,0,0,0,0,0,0,0,0,0,0,0,0,0,0,0,0,0,0,0,0,0,0,0,0,0,0,0,0,0,0,-1.9669,-1.9669,0,-1.9628,-1.9628,-1.9627,-1.9556,-1.9554,-1.9553,-1.9552,-1.9511,-1.9511,-1.9512,0,0,0,0,0,0,0,0,0,0,0,0,0,-1.9688,-1.9688,-1.9669,-1.9669,-1.9668,-1.9628,-1.9628,-1.9627,-1.9556,-1.9554,-1.9553,-1.9551,-1.9511,-1.9511,-1.9512,0,0,0,0,0,0,0,0,0,0,0,0,0,-1.9667,-1.9688,-1.9669,-1.9628,-1.9624,-1.9628,-1.9628,-1.9627,-1.9556,-1.9554,-1.9552,-1.955,-1.9511,-1.9511,-1.9512,-1.9554,0,0,-1.9512,-1.9512,0,0,0,0,0,0,0,0,-1.9668,-1.9666,-1.9635,-1.9631,-1.9626,-1.9595,-1.9619,-1.9602,-1.9557,-1.9582,-1.9552,-1.9549,-1.9541,-1.9538,-1.9535,-1.9552,-1.955,-1.9512,-1.9513,-1.9513,-1.9513,0,0,0,0,0,0,0,-1.967,-1.9668,-1.9653,-1.9634,-1.9629,-1.9612,-1.9607,-1.9616,-1.9573,-1.958,-1.9574,-1.957,-1.9538,-1.9535,-1.9534,-1.9549,-1.9512,-1.9513,-1.9513,-1.9513,-1.96,-1.9602,0,0,0,0,0,0,-1.9677,-1.9669,-1.9654,-1.9652,-1.9642,-1.9613,-1.9607,-1.9607,-1.9573,-1.9566,-1.9572,-1.9567,-1.9536,-1.9534,-1.9532,-1.958,-1.9513,-1.9513,-1.9513,-1.9598,-1.96,-1.9602,0,0,0,0,0,0,-1.9678,-1.9676,-1.9656,-1.9659,-1.9655,-1.9615,-1.9615,-1.9607,-1.9604,-1.9567,-1.956,-1.9577,-1.9534,-1.9532,-1.9549,-1.9578,-1.9513,-1.9513,-1.9595,-1.9598,-1.9601,-1.9676,0,0,0,0,0,0,-1.9678,-1.9677,-1.9692,-1.966,-1.9655,-1.9673,-1.9617,-1.9608,-1.9605,-1.9598,-1.957,-1.9563,-1.9532,-1.9549,-1.9549,-1.9577,-1.9513,-1.9592,-1.9597,-1.96,-1.9671,-1.9682,-1.9691,0,0,0,0,0,-1.9679,-1.9715,-1.9693,-1.9692,-1.9673,-1.9675,-1.9673,-1.9636,-1.9607,-1.9623,-1.9599,-1.9564,-1.9574,-1.9551,-1.9551,-1.9579,-1.959,-1.9595,-1.96,-1.9667,-1.968,-1.9691,0,0,0,0,0,0,-1.9752,-1.971,-1.9686,-1.9712,-1.9698,-1.9663,-1.9681,-1.9651,-1.9645,-1.9639,-1.9594,-1.9588,-1.9612,-1.9597,-1.9572,-1.9619,-1.9577,-1.9582,-1.9628,-1.964,-1.9649,-1.9653,-1.9514,0,0,0,0,0,-1.9771,-1.9776,-1.9739,-1.9766,-1.976,-1.9722,-1.9721,-1.9694,-1.9678,-1.9672,-1.9649,-1.9635,-1.9635,-1.9636,-1.9634,-1.9668,-1.9662,-1.9688,-1.9697,-1.9706,-1.9711,-1.9729,-1.974,-1.9618,-1.9618,-1.9618,0,0,-1.9811,-1.9788,-1.9794,-1.978,-1.9765,-1.9772,-1.9717,-1.9726,-1.9731,-1.9673,-1.9688,-1.9672,-1.9653,-1.9679,-1.969,-1.9668,-1.9743,-1.9712,-1.9719,-1.9719,-1.9735,-1.9747,-1.9757,-1.9622,-1.9621,-1.9621,0,0,-1.9887,-1.987,-1.989,-1.9877,-1.9856,-1.9831,-1.9836,-1.9806,-1.9793,-1.9807,-1.9765,-1.9769,-1.977,-1.9759,-1.9754,-1.9826,-1.9794,-1.9826,-1.9878,-1.9896,-1.9906,-1.9914,-1.9941,-1.9951,-1.9831,-1.9831,-1.9831,0,-1.9939,-1.9946,-1.9905,-1.9917,-1.9912,-1.986,-1.9881,-1.9871,-1.9851,-1.9849,-1.9824,-1.9825,-1.9809,-1.9832,-1.985,-1.9846,-1.9852,-1.983,-1.9907,-1.9915,-1.9923,-1.9948,-1.9958,-1.9836,-1.9835,-1.9835,-1.9834,0,-2.0012,-2.0018,-2.0037,-2.0019,-2.0016,-2.0033,-1.9995,-1.9998,-1.9971,-1.9948,-1.9964,-1.9943,-1.9936,-1.9939,-1.9913,-1.9959,-1.9947,-1.9915,-1.9873,-1.9939,-1.9962,-1.9972,-1.9842,-1.984,-1.9839,-1.9838,0,0,-2.0133,-2.0092,-2.01,-2.0091,-2.0065,-2.0069,-2.0083,-2.0076,-2.008,-2.0067,-2.0079,-2.0081,-2.0052,-2.0046,-2.0018,-2.0034,-2.0094,-2.0001,-2.0,-2.002,-2.0145,-2.017,-2.0182,-2.0072,-2.0074,-2.0075,-2.0147,0,-2.0204,-2.0227,-2.019,-2.0221,-2.0227,-2.0177,-2.019,-2.0175,-2.0155,-2.0157,-2.0134,-2.0137,-2.0098,-2.0094,-2.0107,-2.0084,-2.0119,-2.0078,-2.0084,-2.0085,-2.0092,-2.0194,-2.022,-2.0289,-2.0156,-2.0157,-2.0158,0,-2.0291,-2.0283,-2.0314,-2.0286,-2.0287,-2.0299,-2.029,-2.0292,-2.0275,-2.0259,-2.0252,-2.0219,-2.0232,-2.019,-2.0208,-2.0181,-2.0181,-2.0171,-2.0172,-2.0173,-2.0127,-2.0198,-2.031,-2.0321,-2.0172,-2.0171,-2.017,0,-2.0378,-2.0375,-2.0393,-2.0387,-2.0355,-2.0365,-2.0352,-2.0332,-2.033,-2.0323,-2.0321,-2.0315,-2.0313,-2.0309,-2.0276,-2.0248,-2.0298,-2.0253,-2.0287,-2.0288,-2.0301,-2.0301,-2.0416,-2.0298,-2.0298,-2.0298,-2.0298,0,-2.0462,-2.0484,-2.0432,-2.0444,-2.0467,-2.0425,-2.0449,-2.0431,-2.0414,-2.0422,-2.0379,-2.0387,-2.0342,-2.0346,-2.0319,-2.0339,-2.0338,-2.0326,-2.0319,-2.0331,-2.0333,-2.0332,-2.0327,-2.0301,-2.03,-2.03,-2.0299,0,-2.0564,-2.053,-2.0548,-2.0515,-2.0507,-2.0526,-2.0499,-2.0509,-2.0485,-2.0496,-2.0496,-2.0459,-2.0461,-2.0427,-2.0423,-2.0405,-2.0438,-2.0421,-2.0444,-2.0439,-2.0475,-2.0473,-2.0595,-2.0609,-2.0482,-2.0483,-2.0484,0,-2.0621,-2.0636,-2.0605,-2.0607,-2.0596,-2.06,-2.0598,-2.0557,-2.0557,-2.0539,-2.0552,-2.055,-2.0547,-2.0553,-2.0527,-2.0524,-2.0508,-2.0551,-2.0507,-2.0519,-2.051,-2.0511,-2.0513,-2.0561,-2.0562,-2.0563,-2.0564,0,-2.0726,-2.0708,-2.0707,-2.07,-2.0699,-2.0692,-2.0682,-2.0686,-2.0641,-2.0644,-2.0645,-2.0643,-2.0639,-2.0638,-2.063,-2.0617,-2.0584,-2.0578,-2.0586,-2.0599,-2.0612,-2.0607,-2.047,-2.0576,-2.0575,-2.0574,-2.0573,-2.0573,-2.0808,-2.082,-2.08,-2.08,-2.0788,-2.078,-2.0788,-2.0765,-2.0766,-2.0759,-2.0735,-2.0741,-2.0724,-2.0709,-2.0699,-2.0704,-2.0683,-2.0694,-2.0697,-2.0701,-2.0709,-2.061,-2.0702,-2.0702,-2.0701,-2.0701,-2.0701,0,-2.0912,-2.0897,-2.0897,-2.0884,-2.0885,-2.0852,-2.084,-2.0843,-2.0849,-2.0835,-2.0833,-2.0835,-2.0835,-2.0808,-2.0805,-2.0814,-2.0799,-2.0814,-2.0814,-2.0812,-2.0727,-2.0721,-2.0827,-2.0827,-2.0827,-2.0827,-2.0827,-2.0827,-2.0966,-2.0985,-2.0965,-2.0978,-2.0962,-2.0968,-2.0964,-2.0956,-2.0945,-2.095,-2.0949,-2.0932,-2.0913,-2.0908,-2.0907,-2.0899,-2.09,-2.0922,-2.0909,-2.083,-2.0818,-2.0806,-2.0801,-2.0922,-2.0922,-2.0994,-2.0995,-2.0995]},{"header":{"parameterUnit":"m.s-1","parameterCategory":1,"la1":30.2991,"la2":30.254,"lo1":-89.0895,"lo2":-89.0444,"dy":0.0017,"dx":0.0017,"nx":28,"ny":28,"refTime":"2025-05-31T09:00:00:Z","depth":0,"parameterNumber":3,"parameterNumberName":"V-component_of_WINDS"},"data":[0,0,0,0,0,0,0,0,0,0,0,0,0,0,0,0,0,0,0,0,0,0,0,0,0,0,0,0,0,0,0,0,0,0,0,0,0,0,0,0,0,0,0,0,0,0,0,0,0,0,0,0,0,0,0,0,0,0,-3.4367,-3.4367,0,-3.4388,-3.4389,-3.4389,-3.4368,-3.4367,-3.4366,-3.4366,-3.4384,-3.4386,-3.4387,0,0,0,0,0,0,0,0,0,0,0,0,0,-3.4306,-3.4307,-3.4367,-3.4367,-3.4368,-3.4388,-3.4389,-3.4389,-3.4368,-3.4367,-3.4366,-3.4365,-3.4384,-3.4386,-3.4387,0,0,0,0,0,0,0,0,0,0,0,0,0,-3.433,-3.4307,-3.4367,-3.436,-3.4359,-3.4388,-3.4389,-3.4389,-3.4368,-3.4367,-3.4366,-3.4365,-3.4384,-3.4385,-3.4387,-3.4423,0,0,-3.4393,-3.4394,0,0,0,0,0,0,0,0,-3.4329,-3.4332,-3.4361,-3.436,-3.436,-3.4374,-3.4374,-3.44,-3.4369,-3.4365,-3.4366,-3.4364,-3.4382,-3.4384,-3.439,-3.4424,-3.4425,-3.4393,-3.4394,-3.4395,-3.4396,0,0,0,0,0,0,0,-3.4327,-3.4331,-3.4375,-3.4361,-3.4361,-3.4355,-3.4357,-3.4379,-3.438,-3.4365,-3.4364,-3.4367,-3.4381,-3.4389,-3.4391,-3.4425,-3.4393,-3.4395,-3.4396,-3.4397,-3.4491,-3.4492,0,0,0,0,0,0,-3.4326,-3.433,-3.4375,-3.4376,-3.4341,-3.4357,-3.4359,-3.4371,-3.438,-3.438,-3.4368,-3.4366,-3.4386,-3.4389,-3.4391,-3.4435,-3.4395,-3.4397,-3.4398,-3.4489,-3.4491,-3.4492,0,0,0,0,0,0,-3.4325,-3.4331,-3.4374,-3.4353,-3.4358,-3.4359,-3.4373,-3.4372,-3.4379,-3.4382,-3.4381,-3.4375,-3.4385,-3.4389,-3.4416,-3.4435,-3.4398,-3.4399,-3.4488,-3.449,-3.4492,-3.4522,0,0,0,0,0,0,-3.4324,-3.433,-3.4345,-3.4353,-3.4359,-3.4399,-3.4374,-3.4373,-3.4383,-3.438,-3.4388,-3.4389,-3.4384,-3.4413,-3.4418,-3.4437,-3.4401,-3.4486,-3.4489,-3.4491,-3.452,-3.4525,-3.453,0,0,0,0,0,-3.4321,-3.4352,-3.4346,-3.4351,-3.4377,-3.44,-3.4403,-3.4399,-3.4385,-3.4399,-3.44,-3.4388,-3.4432,-3.4416,-3.4421,-3.4441,-3.4485,-3.4488,-3.4491,-3.4517,-3.4524,-3.453,0,0,0,0,0,0,-3.4344,-3.4353,-3.4346,-3.438,-3.439,-3.4397,-3.4415,-3.4406,-3.4419,-3.4416,-3.4409,-3.4411,-3.444,-3.4443,-3.4425,-3.4477,-3.4456,-3.446,-3.4474,-3.4481,-3.4486,-3.4485,-3.4403,0,0,0,0,0,-3.4354,-3.4373,-3.4378,-3.4408,-3.4413,-3.4413,-3.4423,-3.4419,-3.4428,-3.4432,-3.4435,-3.4444,-3.446,-3.447,-3.4485,-3.452,-3.4521,-3.4536,-3.4541,-3.4545,-3.4549,-3.4568,-3.4575,-3.4502,-3.4502,-3.4502,0,0,-3.4372,-3.4379,-3.4392,-3.4413,-3.442,-3.4439,-3.4417,-3.4438,-3.4452,-3.4435,-3.4461,-3.4464,-3.4473,-3.4505,-3.4519,-3.4508,-3.457,-3.4549,-3.4553,-3.4554,-3.4572,-3.4579,-3.4585,-3.4504,-3.4504,-3.4504,0,0,-3.4417,-3.4424,-3.445,-3.4458,-3.4469,-3.4469,-3.4475,-3.4483,-3.4485,-3.4512,-3.45,-3.4515,-3.4543,-3.455,-3.4557,-3.4605,-3.4595,-3.461,-3.4637,-3.4656,-3.4662,-3.4667,-3.4685,-3.4691,-3.4614,-3.4614,-3.4614,0,-3.4439,-3.4468,-3.4464,-3.4486,-3.4496,-3.4482,-3.4508,-3.4516,-3.4531,-3.4537,-3.4525,-3.456,-3.4565,-3.4598,-3.461,-3.4616,-3.4623,-3.4609,-3.4662,-3.4667,-3.4671,-3.4688,-3.4695,-3.4616,-3.4615,-3.4615,-3.4615,0,-3.4495,-3.4516,-3.4535,-3.4552,-3.4563,-3.4587,-3.4586,-3.4598,-3.4592,-3.4593,-3.4621,-3.4626,-3.4642,-3.465,-3.4644,-3.4682,-3.4676,-3.4663,-3.4641,-3.468,-3.4696,-3.4702,-3.4618,-3.4618,-3.4617,-3.4617,0,0,-3.4555,-3.4569,-3.4576,-3.4584,-3.4596,-3.4611,-3.4634,-3.4651,-3.4662,-3.4672,-3.4692,-3.4715,-3.4704,-3.4712,-3.4707,-3.4724,-3.4762,-3.4709,-3.4709,-3.4719,-3.4805,-3.4816,-3.4823,-3.4755,-3.4756,-3.4757,-3.4805,0,-3.46,-3.4642,-3.4639,-3.4678,-3.4697,-3.4685,-3.4705,-3.4714,-3.4715,-3.4731,-3.4732,-3.4749,-3.4732,-3.4737,-3.4753,-3.4754,-3.4779,-3.475,-3.4773,-3.4774,-3.4772,-3.4832,-3.4843,-3.4887,-3.4811,-3.4812,-3.4813,0,-3.466,-3.4674,-3.4716,-3.4725,-3.4733,-3.4752,-3.4767,-3.4782,-3.4792,-3.4792,-3.4801,-3.4794,-3.4816,-3.4794,-3.4825,-3.4806,-3.4814,-3.4817,-3.4818,-3.4821,-3.4796,-3.4837,-3.4902,-3.4909,-3.4822,-3.4821,-3.4821,0,-3.47,-3.473,-3.4759,-3.4766,-3.4777,-3.4791,-3.4796,-3.4804,-3.4815,-3.4828,-3.4835,-3.4849,-3.4858,-3.4869,-3.4866,-3.485,-3.4898,-3.4875,-3.4898,-3.4898,-3.491,-3.4909,-3.4978,-3.4914,-3.4914,-3.4914,-3.4913,0,-3.4752,-3.4778,-3.4778,-3.4796,-3.4824,-3.482,-3.4848,-3.4851,-3.4859,-3.4877,-3.4866,-3.4883,-3.4877,-3.4893,-3.489,-3.4917,-3.492,-3.492,-3.492,-3.4922,-3.4922,-3.4928,-3.4925,-3.4915,-3.4915,-3.4915,-3.4914,0,-3.4803,-3.4804,-3.4835,-3.4843,-3.4846,-3.4867,-3.4874,-3.4891,-3.4891,-3.4914,-3.4919,-3.4919,-3.4938,-3.4936,-3.4956,-3.4954,-3.4987,-3.4982,-3.4985,-3.4984,-3.5007,-3.5006,-3.5083,-3.5093,-3.5022,-3.5023,-3.5023,0,-3.4837,-3.4857,-3.4868,-3.488,-3.4887,-3.4906,-3.4917,-3.4913,-3.4924,-3.4937,-3.4952,-3.497,-3.4984,-3.5014,-3.5016,-3.5032,-3.5027,-3.5053,-3.5029,-3.5032,-3.5029,-3.5028,-3.503,-3.5058,-3.5059,-3.506,-3.506,0,-3.4897,-3.4896,-3.4913,-3.4931,-3.4945,-3.4958,-3.4969,-3.4979,-3.4976,-3.499,-3.501,-3.5021,-3.5042,-3.506,-3.5075,-3.5079,-3.5069,-3.5068,-3.5074,-3.5077,-3.5078,-3.5079,-3.4999,-3.5066,-3.5065,-3.5065,-3.5065,-3.5064,-3.4941,-3.4958,-3.497,-3.4989,-3.4998,-3.5009,-3.5026,-3.5029,-3.5045,-3.5063,-3.5059,-3.5082,-3.5091,-3.511,-3.5116,-3.5132,-3.5123,-3.5132,-3.5134,-3.5137,-3.514,-3.5075,-3.5135,-3.5135,-3.5134,-3.5134,-3.5134,0,-3.5001,-3.5008,-3.5026,-3.5044,-3.5059,-3.5049,-3.5062,-3.5075,-3.5095,-3.5105,-3.512,-3.5142,-3.5159,-3.5163,-3.5179,-3.5192,-3.5188,-3.5196,-3.5196,-3.5197,-3.5147,-3.5141,-3.52,-3.5199,-3.5199,-3.5199,-3.5199,-3.5199,-3.5034,-3.5064,-3.5065,-3.5099,-3.5105,-3.5128,-3.5136,-3.5146,-3.5154,-3.518,-3.5195,-3.5198,-3.5205,-3.5222,-3.5237,-3.5237,-3.5244,-3.5255,-3.5254,-3.5207,-3.5201,-3.5194,-3.5188,-3.5256,-3.5256,-3.5302,-3.5303,-3.5303]}]]